Time,TemperatureF,DewpointF,PressureIn,WindDirection,WindDirectionDegrees,WindSpeedMPH,WindSpeedGustMPH,Humidity,HourlyPrecipIn,Conditions,Clouds,dailyrainin,SoftwareType,DateUTC
2013-02-12 00:00:00,48.9,19.6,29.89,SE,135,9.2,9.2,31,0.00,CLR,,0.04,WeatherDisplay:10.37,2013-02-12 05:00:00,
2013-02-12 00:05:00,48.9,19.6,29.89,SW,225,18.4,18.4,31,0.00,RA,,0.00,WeatherDisplay:10.37,2013-02-12 05:05:00,
2013-02-12 00:10:00,48.9,19.6,29.89,South,180,18.4,18.4,31,0.00,CLR,,0.00,WeatherDisplay:10.37,2013-02-12 05:10:00,
2013-02-12 00:15:00,48.7,19.4,29.89,ESE,112,12.7,12.7,31,0.00,CLR,,0.00,WeatherDisplay:10.37,2013-02-12 05:15:00,
2013-02-12 00:20:00,48.4,19.1,29.90,NW,315,6.9,6.9,31,0.00,CLR,,0.00,WeatherDisplay:10.37,2013-02-12 05:20:00,
2013-02-12 00:25:00,48.4,19.1,29.90,NW,315,6.9,6.9,31,0.00,CLR,,0.00,WeatherDisplay:10.37,2013-02-12 05:25:00,
2013-02-12 00:30:00,47.8,18.6,29.91,NW,315,15.0,15.0,31,0.00,CLR,,0.00,WeatherDisplay:10.37,2013-02-12 05:30:00,
2013-02-12 00:35:00,47.7,18.5,29.91,South,180,6.9,6.9,31,0.00,CLR,,0.00,WeatherDisplay:10.37,2013-02-12 05:35:00,
2013-02-12 00:40:00,47.7,18.5,29.90,SE,135,15.0,15.0,31,0.00,CLR,,0.00,WeatherDisplay:10.37,2013-02-12 05:40:00,
2013-02-12 00:45:00,47.5,18.3,29.91,SE,135,23.0,23.0,31,0.00,CLR,,0.00,WeatherDisplay:10.37,2013-02-12 05:45:00,
2013-02-12 00:50:00,47.5,17.5,29.91,West,270,10.4,10.4,30,0.00,CLR,,0.00,WeatherDisplay:10.37,2013-02-12 05:50:00,
2013-02-12 00:55:00,47.1,17.2,29.91,SE,135,19.6,19.6,30,0.00,CLR,,0.00,WeatherDisplay:10.37,2013-02-12 05:55:00,
2013-02-12 01:00:00,46.8,17.7,29.91,SSE,158,20.7,20.7,31,0.00,CLR,,0.00,WeatherDisplay:10.37,2013-02-12 06:00:00,
2013-02-12 01:05:00,46.8,17.7,29.91,SSE,158,20.7,20.7,31,0.00,CLR,,0.00,WeatherDisplay:10.37,2013-02-12 06:05:00,
2013-02-12 01:10:00,46.4,18.8,29.92,West,270,12.7,12.7,33,0.00,CLR,,0.00,WeatherDisplay:10.37,2013-02-12 06:10:00,
2013-02-12 01:15:00,46.0,17.8,29.92,SE,135,8.1,8.1,32,0.00,CLR,,0.00,WeatherDisplay:10.37,2013-02-12 06:15:00,
2013-02-12 01:20:00,45.9,18.3,29.93,SE,135,15.0,15.0,33,0.00,CLR,,0.00,WeatherDisplay:10.37,2013-02-12 06:20:00,
2013-02-12 01:25:00,45.7,18.9,29.92,SSW,202,17.3,17.3,34,0.00,CLR,,0.00,WeatherDisplay:10.37,2013-02-12 06:25:00,
2013-02-12 01:30:00,45.5,19.4,29.92,ESE,112,10.4,10.4,35,0.00,CLR,,0.00,WeatherDisplay:10.37,2013-02-12 06:30:00,
2013-02-12 01:35:00,45.3,19.2,29.93,SE,135,10.4,10.4,35,0.00,CLR,,0.00,WeatherDisplay:10.37,2013-02-12 06:35:00,
2013-02-12 01:40:00,45.0,19.6,29.93,South,180,5.8,5.8,36,0.00,CLR,,0.00,WeatherDisplay:10.37,2013-02-12 06:40:00,
2013-02-12 01:45:00,44.8,19.4,29.93,SW,225,11.5,11.5,36,0.00,CLR,,0.00,WeatherDisplay:10.37,2013-02-12 06:45:00,
2013-02-12 01:50:00,44.6,19.9,29.93,SW,225,16.1,16.1,37,0.00,CLR,,0.00,WeatherDisplay:10.37,2013-02-12 06:50:00,
2013-02-12 01:55:00,44.1,20.7,29.94,South,180,6.9,6.9,39,0.00,CLR,,0.00,WeatherDisplay:10.37,2013-02-12 06:55:00,
2013-02-12 02:00:00,43.5,20.2,29.94,East,90,5.8,5.8,39,0.00,CLR,,0.00,WeatherDisplay:10.37,2013-02-12 07:00:00,
2013-02-12 02:05:00,43.5,20.2,29.94,East,90,5.8,5.8,39,0.00,CLR,,0.00,WeatherDisplay:10.37,2013-02-12 07:05:00,
2013-02-12 02:10:00,43.3,20.6,29.95,SE,135,12.7,12.7,40,0.00,CLR,,0.00,WeatherDisplay:10.37,2013-02-12 07:10:00,
2013-02-12 02:15:00,43.3,21.2,29.94,South,180,6.9,6.9,41,0.00,CLR,,0.00,WeatherDisplay:10.37,2013-02-12 07:15:00,
2013-02-12 02:20:00,43.3,20.6,29.96,South,180,9.2,9.2,40,0.00,CLR,,0.00,WeatherDisplay:10.37,2013-02-12 07:20:00,
2013-02-12 02:25:00,43.5,21.9,29.95,SW,225,12.7,12.7,42,0.00,CLR,,0.00,WeatherDisplay:10.37,2013-02-12 07:25:00,
2013-02-12 02:30:00,43.2,21.0,29.96,ENE,68,3.5,3.5,41,0.00,CLR,,0.00,WeatherDisplay:10.37,2013-02-12 07:30:00,
2013-02-12 02:35:00,43.0,21.4,29.95,SW,225,3.5,3.8,42,0.00,CLR,,0.00,WeatherDisplay:10.37,2013-02-12 07:35:00,
2013-02-12 02:40:00,42.8,21.8,29.95,West,270,11.5,11.5,43,0.00,CLR,,0.00,WeatherDisplay:10.37,2013-02-12 07:40:00,
2013-02-12 02:45:00,42.8,21.8,29.95,SE,135,9.2,9.2,43,0.00,CLR,,0.00,WeatherDisplay:10.37,2013-02-12 07:45:00,
2013-02-12 02:50:00,42.8,21.8,29.95,South,180,9.2,9.2,43,0.00,CLR,,0.00,WeatherDisplay:10.37,2013-02-12 07:50:00,
2013-02-12 02:55:00,43.0,22.0,29.94,SE,135,5.8,5.8,43,0.00,CLR,,0.00,WeatherDisplay:10.37,2013-02-12 07:55:00,
2013-02-12 03:00:00,42.8,21.8,29.95,East,90,12.7,12.7,43,0.00,CLR,,0.00,WeatherDisplay:10.37,2013-02-12 08:00:00,
2013-02-12 03:05:00,42.8,21.8,29.95,East,90,12.7,12.7,43,0.00,CLR,,0.00,WeatherDisplay:10.37,2013-02-12 08:05:00,
2013-02-12 03:10:00,42.6,22.2,29.95,NW,315,6.9,6.9,44,0.00,CLR,,0.00,WeatherDisplay:10.37,2013-02-12 08:10:00,
2013-02-12 03:16:00,42.6,22.2,29.96,SW,225,10.4,10.4,44,0.00,CLR,,0.00,WeatherDisplay:10.37,2013-02-12 08:16:00,
2013-02-12 03:21:00,42.6,22.2,29.95,SW,225,16.1,16.1,44,0.00,CLR,,0.00,WeatherDisplay:10.37,2013-02-12 08:21:00,
2013-02-12 03:26:00,42.6,22.2,29.95,SW,225,6.9,6.9,44,0.00,CLR,,0.00,WeatherDisplay:10.37,2013-02-12 08:26:00,
2013-02-12 03:31:00,42.1,22.8,29.95,SW,225,4.6,4.6,46,0.00,CLR,,0.00,WeatherDisplay:10.37,2013-02-12 08:31:00,
2013-02-12 03:36:00,42.1,22.2,29.95,ENE,68,9.2,9.2,45,0.00,CLR,,0.00,WeatherDisplay:10.37,2013-02-12 08:36:00,
2013-02-12 03:41:00,42.1,22.2,29.95,SE,135,10.4,10.4,45,0.00,CLR,,0.00,WeatherDisplay:10.37,2013-02-12 08:41:00,
2013-02-12 03:46:00,42.1,22.2,29.95,North,0,5.8,5.8,45,0.00,CLR,,0.00,WeatherDisplay:10.37,2013-02-12 08:46:00,
2013-02-12 03:51:00,41.9,22.6,29.94,SW,225,6.9,6.9,46,0.00,CLR,,0.00,WeatherDisplay:10.37,2013-02-12 08:51:00,
2013-02-12 03:56:00,41.9,22.6,29.95,NW,315,6.9,6.9,46,0.00,CLR,,0.00,WeatherDisplay:10.37,2013-02-12 08:56:00,
2013-02-12 04:01:00,41.7,22.4,29.95,SW,225,5.8,5.8,46,0.00,CLR,,0.00,WeatherDisplay:10.37,2013-02-12 09:01:00,
2013-02-12 04:06:00,41.7,22.4,29.95,SW,225,5.8,5.8,46,0.00,CLR,,0.00,WeatherDisplay:10.37,2013-02-12 09:06:00,
2013-02-12 04:11:00,41.5,22.8,29.95,SW,225,12.7,12.7,47,0.00,CLR,,0.00,WeatherDisplay:10.37,2013-02-12 09:11:00,
2013-02-12 04:16:00,41.4,22.6,29.94,SE,135,10.4,10.4,47,0.00,CLR,,0.00,WeatherDisplay:10.37,2013-02-12 09:16:00,
2013-02-12 04:21:00,41.4,22.6,29.95,NW,315,5.8,5.8,47,0.00,CLR,,0.00,WeatherDisplay:10.37,2013-02-12 09:21:00,
2013-02-12 04:26:00,41.2,22.5,29.94,South,180,5.8,10.7,47,0.00,CLR,,0.00,WeatherDisplay:10.37,2013-02-12 09:26:00,
2013-02-12 04:31:00,41.4,22.6,29.94,East,90,10.4,10.4,47,0.00,CLR,,0.00,WeatherDisplay:10.37,2013-02-12 09:31:00,
2013-02-12 04:36:00,41.2,22.5,29.94,East,90,6.9,6.9,47,0.00,CLR,,0.00,WeatherDisplay:10.37,2013-02-12 09:36:00,
2013-02-12 04:41:00,41.2,23.0,29.95,SE,135,3.5,3.5,48,0.00,CLR,,0.00,WeatherDisplay:10.37,2013-02-12 09:41:00,
2013-02-12 04:46:00,41.0,22.8,29.95,SE,135,12.7,12.7,48,0.00,CLR,,0.00,WeatherDisplay:10.37,2013-02-12 09:46:00,
2013-02-12 04:51:00,40.8,22.6,29.95,East,90,5.8,5.8,48,0.00,CLR,,0.00,WeatherDisplay:10.37,2013-02-12 09:51:00,
2013-02-12 04:56:00,40.6,22.9,29.95,East,90,9.2,9.2,49,0.00,CLR,,0.00,WeatherDisplay:10.37,2013-02-12 09:56:00,
2013-02-12 05:01:00,40.8,22.6,29.95,SSE,158,10.4,10.4,48,0.00,CLR,,0.00,WeatherDisplay:10.37,2013-02-12 10:01:00,
2013-02-12 05:06:00,41.0,22.3,29.95,South,180,6.9,6.9,47,0.00,CLR,,0.00,WeatherDisplay:10.37,2013-02-12 10:06:00,
2013-02-12 05:11:00,41.0,22.3,29.95,SE,135,17.3,17.3,47,0.00,CLR,,0.00,WeatherDisplay:10.37,2013-02-12 10:11:00,
2013-02-12 05:16:00,40.8,22.1,29.95,SE,135,8.1,8.1,47,0.00,CLR,,0.00,WeatherDisplay:10.37,2013-02-12 10:16:00,
2013-02-12 05:21:00,40.8,22.1,29.95,SE,135,8.1,8.1,47,0.00,CLR,,0.00,WeatherDisplay:10.37,2013-02-12 10:21:00,
2013-02-12 05:26:00,40.3,22.1,29.95,SE,135,12.7,12.7,48,0.00,CLR,,0.00,WeatherDisplay:10.37,2013-02-12 10:26:00,
2013-02-12 05:31:00,40.3,22.6,29.95,SE,135,15.0,15.0,49,0.00,CLR,,0.00,WeatherDisplay:10.37,2013-02-12 10:31:00,
2013-02-12 05:36:00,40.1,22.9,29.95,ENE,68,10.4,10.4,50,0.00,CLR,,0.00,WeatherDisplay:10.37,2013-02-12 10:36:00,
2013-02-12 05:41:00,40.3,22.1,29.95,SE,135,12.7,12.7,48,0.00,CLR,,0.00,WeatherDisplay:10.37,2013-02-12 10:41:00,
2013-02-12 05:46:00,40.3,22.6,29.95,SE,135,6.9,6.9,49,0.00,CLR,,0.00,WeatherDisplay:10.37,2013-02-12 10:46:00,
2013-02-12 05:51:00,40.3,22.6,29.95,SE,135,6.9,6.9,49,0.00,CLR,,0.00,WeatherDisplay:10.37,2013-02-12 10:51:00,
2013-02-12 05:56:00,40.1,22.0,29.95,East,90,17.3,17.3,48,0.00,CLR,,0.00,WeatherDisplay:10.37,2013-02-12 10:56:00,
2013-02-12 06:01:00,39.7,22.1,29.95,South,180,8.1,8.1,49,0.00,CLR,,0.00,WeatherDisplay:10.37,2013-02-12 11:01:00,
2013-02-12 06:06:00,39.7,22.1,29.96,South,180,8.1,8.1,49,0.00,CLR,,0.00,WeatherDisplay:10.37,2013-02-12 11:06:00,
2013-02-12 06:11:00,39.7,21.6,29.96,South,180,8.1,8.1,48,0.00,CLR,,0.00,WeatherDisplay:10.37,2013-02-12 11:11:00,
2013-02-12 06:16:00,39.7,22.6,29.97,SE,135,10.4,10.4,50,0.00,CLR,,0.00,WeatherDisplay:10.37,2013-02-12 11:16:00,
2013-02-12 06:21:00,39.7,22.6,29.97,South,180,11.5,11.5,50,0.00,CLR,,0.00,WeatherDisplay:10.37,2013-02-12 11:21:00,
2013-02-12 06:26:00,39.6,22.4,29.97,NE,45,12.7,12.7,50,0.00,CLR,,0.00,WeatherDisplay:10.37,2013-02-12 11:26:00,
2013-02-12 06:31:00,39.7,22.6,29.96,SE,135,13.8,13.8,50,0.00,CLR,,0.00,WeatherDisplay:10.37,2013-02-12 11:31:00,
2013-02-12 06:36:00,39.6,22.0,29.96,SE,135,5.8,7.6,49,0.00,CLR,,0.00,WeatherDisplay:10.37,2013-02-12 11:36:00,
2013-02-12 06:41:00,39.6,22.0,29.97,SE,135,13.8,13.8,49,0.00,CLR,,0.00,WeatherDisplay:10.37,2013-02-12 11:41:00,
2013-02-12 06:46:00,39.7,22.1,29.96,SE,135,11.5,11.5,49,0.00,CLR,,0.00,WeatherDisplay:10.37,2013-02-12 11:46:00,
2013-02-12 06:51:00,39.4,21.8,29.96,SE,135,10.4,10.4,49,0.00,CLR,,0.00,WeatherDisplay:10.37,2013-02-12 11:51:00,
2013-02-12 06:56:00,39.2,22.1,29.96,SE,135,15.0,15.0,50,0.00,CLR,,0.00,WeatherDisplay:10.37,2013-02-12 11:56:00,
2013-02-12 07:01:00,39.6,22.0,29.96,East,90,17.3,17.3,49,0.00,CLR,,0.00,WeatherDisplay:10.37,2013-02-12 12:01:00,
2013-02-12 07:06:00,39.6,22.0,29.96,SE,135,15.0,15.0,49,0.00,CLR,,0.00,WeatherDisplay:10.37,2013-02-12 12:06:00,
2013-02-12 07:11:00,39.6,22.0,29.96,East,90,17.3,17.3,49,0.00,CLR,,0.00,WeatherDisplay:10.37,2013-02-12 12:11:00,
2013-02-12 07:16:00,39.4,21.8,29.96,SE,135,8.1,8.1,49,0.00,CLR,,0.00,WeatherDisplay:10.37,2013-02-12 12:16:00,
2013-02-12 07:21:00,39.4,22.3,29.98,East,90,12.7,12.7,50,0.00,CLR,,0.00,WeatherDisplay:10.37,2013-02-12 12:21:00,
2013-02-12 07:26:00,39.0,21.9,29.99,South,180,5.8,5.8,50,0.00,CLR,,0.00,WeatherDisplay:10.37,2013-02-12 12:26:00,
2013-02-12 07:31:00,38.8,22.2,29.99,SE,135,13.8,13.8,51,0.00,CLR,,0.00,WeatherDisplay:10.37,2013-02-12 12:31:00,
2013-02-12 07:36:00,38.8,22.2,29.99,SE,135,13.8,13.8,51,0.00,CLR,,0.00,WeatherDisplay:10.37,2013-02-12 12:36:00,
2013-02-12 07:41:00,39.0,21.9,29.98,South,180,10.4,10.4,50,0.00,CLR,,0.00,WeatherDisplay:10.37,2013-02-12 12:41:00,
2013-02-12 07:46:00,39.0,21.9,29.97,North,8,10.4,10.4,50,0.00,CLR,,0.00,WeatherDisplay:10.37,2013-02-12 12:46:00,
2013-02-12 07:51:00,39.0,21.9,29.97,North,0,10.4,10.4,50,0.00,CLR,,0.00,WeatherDisplay:10.37,2013-02-12 12:51:00,
2013-02-12 07:56:00,39.0,21.9,29.97,North,0,10.4,10.4,50,0.00,CLR,,0.00,WeatherDisplay:10.37,2013-02-12 12:56:00,
2013-02-12 08:01:00,41.0,22.3,29.97,SE,135,11.5,11.5,47,0.00,CLR,,0.00,WeatherDisplay:10.37,2013-02-12 13:01:00,
2013-02-12 08:06:00,41.0,22.3,29.98,SE,135,11.5,11.5,47,0.00,CLR,,0.00,WeatherDisplay:10.37,2013-02-12 13:06:00,
2013-02-12 08:11:00,39.9,22.8,29.99,SE,135,9.2,9.2,50,0.00,CLR,,0.00,WeatherDisplay:10.37,2013-02-12 13:11:00,
2013-02-12 08:16:00,41.0,22.8,29.98,East,90,11.5,11.5,48,0.00,CLR,,0.00,WeatherDisplay:10.37,2013-02-12 13:16:00,
2013-02-12 08:21:00,44.2,22.6,29.98,SE,135,12.7,12.7,42,0.00,CLR,,0.00,WeatherDisplay:10.37,2013-02-12 13:21:00,
2013-02-12 08:26:00,44.4,23.3,29.99,SE,135,5.8,5.8,43,0.00,CLR,,0.00,WeatherDisplay:10.37,2013-02-12 13:26:00,
2013-02-12 08:31:00,45.1,22.8,29.99,East,90,11.5,11.5,41,0.00,CLR,,0.00,WeatherDisplay:10.37,2013-02-12 13:31:00,
2013-02-12 08:36:00,45.1,22.8,29.99,East,90,11.5,11.5,41,0.00,CLR,,0.00,WeatherDisplay:10.37,2013-02-12 13:36:00,
2013-02-12 08:41:00,46.4,22.8,29.99,SE,135,12.7,12.7,39,0.00,CLR,,0.00,WeatherDisplay:10.37,2013-02-12 13:41:00,
2013-02-12 08:46:00,46.2,22.0,29.98,East,90,17.3,17.3,38,0.00,CLR,,0.00,WeatherDisplay:10.37,2013-02-12 13:46:00,
2013-02-12 08:52:00,45.0,22.1,29.98,East,90,10.4,10.4,40,0.00,CLR,,0.00,WeatherDisplay:10.37,2013-02-12 13:52:00,
2013-02-12 08:57:00,44.4,22.2,29.98,East,90,17.3,17.3,41,0.00,CLR,,0.00,WeatherDisplay:10.37,2013-02-12 13:57:00,
2013-02-12 09:02:00,45.1,23.9,29.98,East,90,8.1,8.1,43,0.00,CLR,,0.00,WeatherDisplay:10.37,2013-02-12 14:02:00,
2013-02-12 09:07:00,44.6,21.7,29.98,SW,225,9.2,9.2,40,0.00,CLR,,0.00,WeatherDisplay:10.37,2013-02-12 14:07:00,
2013-02-12 09:12:00,44.6,23.5,29.98,SE,135,9.2,9.2,43,0.00,CLR,,0.00,WeatherDisplay:10.37,2013-02-12 14:12:00,
2013-02-12 09:17:00,44.6,23.5,29.98,North,6,9.2,9.2,43,0.00,CLR,,0.00,WeatherDisplay:10.37,2013-02-12 14:17:00,
2013-02-12 09:22:00,45.3,22.4,29.97,SE,135,19.6,19.6,40,0.00,CLR,,0.00,WeatherDisplay:10.37,2013-02-12 14:22:00,
2013-02-12 09:27:00,45.5,22.5,29.98,SSE,158,11.5,11.5,40,0.00,CLR,,0.00,WeatherDisplay:10.37,2013-02-12 14:27:00,
2013-02-12 09:32:00,46.2,22.6,29.98,East,90,8.1,8.1,39,0.00,CLR,,0.00,WeatherDisplay:10.37,2013-02-12 14:32:00,
2013-02-12 09:37:00,46.6,22.9,29.98,East,90,8.1,8.1,39,0.00,CLR,,0.00,WeatherDisplay:10.37,2013-02-12 14:37:00,
2013-02-12 09:42:00,47.7,23.9,29.98,SE,135,11.5,11.5,39,0.00,CLR,,0.00,WeatherDisplay:10.37,2013-02-12 14:42:00,
2013-02-12 09:47:00,48.4,22.0,29.99,East,90,10.4,10.4,35,0.00,CLR,,0.00,WeatherDisplay:10.37,2013-02-12 14:47:00,
2013-02-12 09:52:00,48.4,22.0,29.98,East,90,10.4,10.4,35,0.00,CLR,,0.00,WeatherDisplay:10.37,2013-02-12 14:52:00,
2013-02-12 09:57:00,52.3,26.8,29.99,SE,135,6.9,6.9,37,0.00,CLR,,0.00,WeatherDisplay:10.37,2013-02-12 14:57:00,
2013-02-12 10:02:00,52.5,22.7,29.98,SSE,158,9.2,9.2,31,0.00,CLR,,0.00,WeatherDisplay:10.37,2013-02-12 15:02:00,
2013-02-12 10:07:00,51.8,23.6,29.99,East,90,9.2,9.2,33,0.00,CLR,,0.00,WeatherDisplay:10.37,2013-02-12 15:07:00,
2013-02-12 10:12:00,49.1,21.9,29.98,SE,135,15.0,15.0,34,0.00,CLR,,0.00,WeatherDisplay:10.37,2013-02-12 15:12:00,
2013-02-12 10:17:00,48.4,22.0,29.98,East,90,17.3,17.3,35,0.00,CLR,,0.00,WeatherDisplay:10.37,2013-02-12 15:17:00,
2013-02-12 10:22:00,47.7,22.0,29.99,South,180,8.1,8.1,36,0.00,CLR,,0.00,WeatherDisplay:10.37,2013-02-12 15:22:00,
2013-02-12 10:27:00,46.9,23.8,29.99,East,90,6.9,6.9,40,0.00,CLR,,0.00,WeatherDisplay:10.37,2013-02-12 15:27:00,
2013-02-12 10:32:00,46.4,21.5,29.99,East,90,11.5,11.5,37,0.00,CLR,,0.00,WeatherDisplay:10.37,2013-02-12 15:32:00,
2013-02-12 10:37:00,46.8,21.2,29.99,East,90,8.1,8.1,36,0.00,CLR,,0.00,WeatherDisplay:10.37,2013-02-12 15:37:00,
2013-02-12 10:42:00,46.8,23.1,29.99,SE,135,11.5,11.5,39,0.00,CLR,,0.00,WeatherDisplay:10.37,2013-02-12 15:42:00,
2013-02-12 10:47:00,46.4,20.9,29.99,SE,135,10.4,10.4,36,0.00,CLR,,0.00,WeatherDisplay:10.37,2013-02-12 15:47:00,
2013-02-12 10:52:00,46.2,21.3,29.98,SE,135,12.7,12.7,37,0.00,CLR,,0.00,WeatherDisplay:10.37,2013-02-12 15:52:00,
2013-02-12 10:57:00,46.9,20.0,29.98,East,90,11.5,11.5,34,0.00,CLR,,0.00,WeatherDisplay:10.37,2013-02-12 15:57:00,
2013-02-12 11:02:00,46.8,21.2,29.98,SE,135,9.2,9.2,36,0.00,CLR,,0.00,WeatherDisplay:10.37,2013-02-12 16:02:00,
2013-02-12 11:07:00,46.6,21.0,29.98,SE,135,11.5,11.5,36,0.00,CLR,,0.00,WeatherDisplay:10.37,2013-02-12 16:07:00,
2013-02-12 11:12:00,46.4,20.9,29.98,East,90,16.1,16.1,36,0.00,CLR,,0.00,WeatherDisplay:10.37,2013-02-12 16:12:00,
2013-02-12 11:17:00,47.3,19.6,29.98,SE,135,9.2,9.2,33,0.00,CLR,,0.00,WeatherDisplay:10.37,2013-02-12 16:17:00,
2013-02-12 11:22:00,47.1,18.7,29.98,East,90,16.1,16.1,32,0.00,CLR,,0.00,WeatherDisplay:10.37,2013-02-12 16:22:00,
2013-02-12 11:27:00,46.9,19.3,29.98,SE,135,10.4,10.4,33,0.00,CLR,,0.00,WeatherDisplay:10.37,2013-02-12 16:27:00,
2013-02-12 11:32:00,47.3,21.7,29.98,NE,45,3.5,3.5,36,0.00,CLR,,0.00,WeatherDisplay:10.37,2013-02-12 16:32:00,
2013-02-12 11:37:00,47.8,20.1,29.97,East,90,11.5,11.5,33,0.00,CLR,,0.00,WeatherDisplay:10.37,2013-02-12 16:37:00,
2013-02-12 11:42:00,47.8,20.1,29.98,East,90,8.1,8.1,33,0.00,CLR,,0.00,WeatherDisplay:10.37,2013-02-12 16:42:00,
2013-02-12 11:47:00,48.2,21.8,29.97,SE,135,6.9,6.9,35,0.00,CLR,,0.00,WeatherDisplay:10.37,2013-02-12 16:47:00,
2013-02-12 11:52:00,49.8,20.4,29.97,SE,135,10.4,10.4,31,0.00,CLR,,0.00,WeatherDisplay:10.37,2013-02-12 16:52:00,
2013-02-12 11:57:00,49.8,20.4,29.96,SE,135,10.4,10.4,31,0.00,CLR,,0.00,WeatherDisplay:10.37,2013-02-12 16:57:00,
2013-02-12 12:02:00,51.1,21.5,29.96,SE,135,10.4,10.4,31,0.00,CLR,,0.00,WeatherDisplay:10.37,2013-02-12 17:02:00,
2013-02-12 12:07:00,51.8,21.3,29.96,East,90,5.8,5.8,30,0.00,CLR,,0.00,WeatherDisplay:10.37,2013-02-12 17:07:00,
2013-02-12 12:12:00,51.8,21.3,29.95,East,90,3.5,3.5,30,0.00,CLR,,0.00,WeatherDisplay:10.37,2013-02-12 17:12:00,
2013-02-12 12:17:00,54.0,23.2,29.94,NE,45,3.5,3.8,30,0.00,CLR,,0.00,WeatherDisplay:10.37,2013-02-12 17:17:00,
2013-02-12 12:22:00,54.0,23.2,29.94,NE,45,8.1,8.1,30,0.00,CLR,,0.00,WeatherDisplay:10.37,2013-02-12 17:22:00,
2013-02-12 12:27:00,54.0,23.2,29.93,North,2,8.3,8.3,30,0.00,CLR,,0.00,WeatherDisplay:10.37,2013-02-12 17:27:00,
2013-02-12 12:32:00,54.9,24.0,29.93,NW,315,3.5,3.5,30,0.00,CLR,,0.00,WeatherDisplay:10.37,2013-02-12 17:32:00,
2013-02-12 12:37:00,54.7,23.8,29.92,North,1,10.4,10.4,30,0.00,CLR,,0.00,WeatherDisplay:10.37,2013-02-12 17:37:00,
2013-02-12 12:42:00,54.7,23.8,29.92,North,0,10.4,10.4,30,0.00,CLR,,0.00,WeatherDisplay:10.37,2013-02-12 17:42:00,
2013-02-12 12:47:00,55.0,24.1,29.91,South,180,10.4,10.4,30,0.00,CLR,,0.00,WeatherDisplay:10.37,2013-02-12 17:47:00,
2013-02-12 12:52:00,55.0,24.1,29.91,South,180,5.8,5.8,30,0.00,CLR,,0.00,WeatherDisplay:10.37,2013-02-12 17:52:00,
2013-02-12 12:57:00,55.0,24.1,29.90,North,0,5.8,5.8,30,0.00,CLR,,0.00,WeatherDisplay:10.37,2013-02-12 17:57:00,
2013-02-12 13:02:00,56.8,25.7,29.89,East,90,10.4,10.4,30,0.00,CLR,,0.00,WeatherDisplay:10.37,2013-02-12 18:02:00,
2013-02-12 13:07:00,57.4,26.2,29.88,NE,45,10.4,10.4,30,0.00,CLR,,0.00,WeatherDisplay:10.37,2013-02-12 18:07:00,
2013-02-12 13:12:00,56.7,25.5,29.86,NW,315,12.7,12.7,30,0.00,CLR,,0.00,WeatherDisplay:10.37,2013-02-12 18:12:00,
2013-02-12 13:17:00,56.7,25.5,29.85,NW,315,12.7,12.7,30,0.00,CLR,,0.00,WeatherDisplay:10.37,2013-02-12 18:17:00,
2013-02-12 13:22:00,56.7,25.5,29.83,North,1,12.7,12.7,30,0.00,CLR,,0.00,WeatherDisplay:10.37,2013-02-12 18:22:00,
2013-02-12 13:27:00,58.5,27.1,29.84,NW,315,4.6,4.6,30,0.00,CLR,,0.00,WeatherDisplay:10.37,2013-02-12 18:27:00,
2013-02-12 13:32:00,58.5,27.1,29.87,NW,315,4.6,4.6,30,0.00,CLR,,0.00,WeatherDisplay:10.37,2013-02-12 18:32:00,
2013-02-12 13:37:00,59.4,27.9,29.88,SW,225,5.8,5.8,30,0.00,CLR,,0.00,WeatherDisplay:10.37,2013-02-12 18:37:00,
2013-02-12 13:42:00,57.9,26.6,29.88,SE,135,6.9,6.9,30,0.00,CLR,,0.00,WeatherDisplay:10.37,2013-02-12 18:42:00,
2013-02-12 13:47:00,59.2,27.7,29.89,South,180,3.5,3.5,30,0.00,CLR,,0.00,WeatherDisplay:10.37,2013-02-12 18:47:00,
2013-02-12 13:52:00,60.6,29.0,29.91,SW,225,6.9,6.9,30,0.00,CLR,,0.00,WeatherDisplay:10.37,2013-02-12 18:52:00,
2013-02-12 13:57:00,60.8,29.1,29.90,SE,135,10.4,10.4,30,0.00,CLR,,0.00,WeatherDisplay:10.37,2013-02-12 18:57:00,
2013-02-12 14:02:00,60.3,28.7,29.91,SW,225,11.5,11.5,30,0.00,CLR,,0.00,WeatherDisplay:10.37,2013-02-12 19:02:00,
2013-02-12 14:07:00,60.3,28.7,29.91,South,180,8.1,8.1,30,0.00,CLR,,0.00,WeatherDisplay:10.37,2013-02-12 19:07:00,
2013-02-12 14:12:00,60.8,29.1,29.91,SE,135,9.2,9.2,30,0.00,CLR,,0.00,WeatherDisplay:10.37,2013-02-12 19:12:00,
2013-02-12 14:17:00,61.2,29.5,29.91,NE,45,6.9,6.9,30,0.00,CLR,,0.00,WeatherDisplay:10.37,2013-02-12 19:17:00,
2013-02-12 14:22:00,59.5,28.0,29.91,NW,315,8.1,8.1,30,0.00,CLR,,0.00,WeatherDisplay:10.37,2013-02-12 19:22:00,
2013-02-12 14:27:00,60.4,28.8,29.91,NW,315,4.6,4.6,30,0.00,CLR,,0.00,WeatherDisplay:10.37,2013-02-12 19:27:00,
2013-02-12 14:32:00,60.6,29.0,29.91,SE,135,3.5,4.5,30,0.00,CLR,,0.00,WeatherDisplay:10.37,2013-02-12 19:32:00,
2013-02-12 14:37:00,60.4,28.8,29.91,NW,315,9.2,9.2,30,0.00,CLR,,0.00,WeatherDisplay:10.37,2013-02-12 19:37:00,
2013-02-12 14:43:00,60.4,28.8,29.91,NW,315,2.3,0.0,30,0.00,CLR,,0.00,WeatherDisplay:10.37,2013-02-12 19:43:00,
2013-02-12 14:48:00,61.3,29.6,29.91,SE,135,5.8,5.8,30,0.00,CLR,,0.00,WeatherDisplay:10.37,2013-02-12 19:48:00,
2013-02-12 14:53:00,61.3,29.6,29.92,SW,225,6.9,6.9,30,0.00,CLR,,0.00,WeatherDisplay:10.37,2013-02-12 19:53:00,
2013-02-12 14:58:00,61.3,29.6,29.92,SE,135,5.8,5.8,30,0.00,CLR,,0.00,WeatherDisplay:10.37,2013-02-12 19:58:00,
2013-02-12 15:03:00,61.3,29.6,29.91,West,270,6.9,6.9,30,0.00,CLR,,0.00,WeatherDisplay:10.37,2013-02-12 20:03:00,
2013-02-12 15:08:00,60.6,29.0,29.92,West,270,8.1,8.1,30,0.00,CLR,,0.00,WeatherDisplay:10.37,2013-02-12 20:08:00,
2013-02-12 15:13:00,59.9,28.4,29.92,South,180,3.5,3.5,30,0.00,CLR,,0.00,WeatherDisplay:10.37,2013-02-12 20:13:00,
2013-02-12 15:18:00,58.8,27.4,29.92,NW,315,5.8,5.8,30,0.00,CLR,,0.00,WeatherDisplay:10.37,2013-02-12 20:18:00,
2013-02-12 15:23:00,58.8,27.4,29.91,WNW,292,6.9,6.9,30,0.00,CLR,,0.00,WeatherDisplay:10.37,2013-02-12 20:23:00,
2013-02-12 15:28:00,57.6,26.3,29.91,SE,135,3.5,3.5,30,0.00,CLR,,0.00,WeatherDisplay:10.37,2013-02-12 20:28:00,
2013-02-12 15:33:00,58.1,26.8,29.91,SE,135,5.8,5.8,30,0.00,CLR,,0.00,WeatherDisplay:10.37,2013-02-12 20:33:00,
2013-02-12 15:38:00,59.4,27.9,29.90,South,180,8.1,8.1,30,0.00,CLR,,0.00,WeatherDisplay:10.37,2013-02-12 20:38:00,
2013-02-12 15:43:00,59.4,27.9,29.89,South,180,8.1,8.1,30,0.00,CLR,,0.00,WeatherDisplay:10.37,2013-02-12 20:43:00,
2013-02-12 15:48:00,59.4,27.9,29.89,South,180,12.7,12.7,30,0.00,CLR,,0.00,WeatherDisplay:10.37,2013-02-12 20:48:00,
2013-02-12 15:53:00,59.5,28.0,29.90,East,90,3.5,3.5,30,0.00,CLR,,0.00,WeatherDisplay:10.37,2013-02-12 20:53:00,
2013-02-12 15:58:00,59.5,28.0,29.90,East,90,3.5,3.5,30,0.00,CLR,,0.00,WeatherDisplay:10.37,2013-02-12 20:58:00,
2013-02-12 16:03:00,59.5,28.0,29.90,North,0,3.5,3.5,30,0.00,CLR,,0.00,WeatherDisplay:10.37,2013-02-12 21:03:00,
2013-02-12 16:08:00,56.1,25.1,29.90,East,90,3.5,3.5,30,0.00,CLR,,0.00,WeatherDisplay:10.37,2013-02-12 21:08:00,
2013-02-12 16:13:00,56.1,25.1,29.91,East,90,3.5,3.5,30,0.00,CLR,,0.00,WeatherDisplay:10.37,2013-02-12 21:13:00,
2013-02-12 16:18:00,55.6,24.6,29.91,SE,135,3.5,3.5,30,0.00,CLR,,0.00,WeatherDisplay:10.37,2013-02-12 21:18:00,
2013-02-12 16:23:00,55.2,24.3,29.92,SE,135,4.6,4.6,30,0.00,CLR,,0.00,WeatherDisplay:10.37,2013-02-12 21:23:00,
2013-02-12 16:28:00,55.2,24.3,29.92,North,6,4.6,4.6,30,0.00,CLR,,0.00,WeatherDisplay:10.37,2013-02-12 21:28:00,
2013-02-12 16:33:00,54.9,24.0,29.93,SE,135,6.9,6.9,30,0.00,CLR,,0.00,WeatherDisplay:10.37,2013-02-12 21:33:00,
2013-02-12 16:38:00,54.9,24.0,29.92,WSW,248,5.8,5.8,30,0.00,CLR,,0.00,WeatherDisplay:10.37,2013-02-12 21:38:00,
2013-02-12 16:43:00,54.3,23.5,29.93,SW,225,4.6,4.6,30,0.00,CLR,,0.00,WeatherDisplay:10.37,2013-02-12 21:43:00,
2013-02-12 16:48:00,54.0,23.2,29.92,SE,135,8.1,8.1,30,0.00,CLR,,0.00,WeatherDisplay:10.37,2013-02-12 21:48:00,
2013-02-12 16:53:00,54.0,23.2,29.92,SE,135,5.8,5.8,30,0.00,CLR,,0.00,WeatherDisplay:10.37,2013-02-12 21:53:00,
2013-02-12 16:58:00,54.0,23.2,29.91,North,6,5.8,5.8,30,0.00,CLR,,0.00,WeatherDisplay:10.37,2013-02-12 21:58:00,
2013-02-12 17:03:00,53.4,22.7,29.92,SE,135,5.8,5.8,30,0.00,CLR,,0.00,WeatherDisplay:10.37,2013-02-12 22:03:00,
2013-02-12 17:08:00,53.4,22.7,29.92,SW,225,15.0,15.0,30,0.00,CLR,,0.00,WeatherDisplay:10.37,2013-02-12 22:08:00,
2013-02-12 17:13:00,53.4,22.7,29.91,SW,225,15.0,15.0,30,0.00,CLR,,0.00,WeatherDisplay:10.37,2013-02-12 22:13:00,
2013-02-12 17:18:00,53.4,22.7,29.91,North,0,15.0,15.0,30,0.00,CLR,,0.00,WeatherDisplay:10.37,2013-02-12 22:18:00,
2013-02-12 17:23:00,53.1,22.4,29.91,SSE,158,4.6,4.6,30,0.00,CLR,,0.00,WeatherDisplay:10.37,2013-02-12 22:23:00,
2013-02-12 17:28:00,53.1,22.4,29.90,SSE,158,3.5,3.5,30,0.00,CLR,,0.00,WeatherDisplay:10.37,2013-02-12 22:28:00,
2013-02-12 17:33:00,53.1,22.4,29.90,North,5,3.5,3.5,30,0.00,CLR,,0.00,WeatherDisplay:10.37,2013-02-12 22:33:00,
2013-02-12 17:38:00,53.1,22.4,29.90,North,0,3.5,3.5,30,0.00,CLR,,0.00,WeatherDisplay:10.37,2013-02-12 22:38:00,
2013-02-12 17:43:00,53.1,22.4,29.91,North,0,3.5,3.5,30,0.00,CLR,,0.00,WeatherDisplay:10.37,2013-02-12 22:43:00,
2013-02-12 17:48:00,53.1,22.4,29.90,North,0,3.5,3.5,30,0.00,CLR,,0.00,WeatherDisplay:10.37,2013-02-12 22:48:00,
2013-02-12 17:53:00,53.1,22.4,29.90,North,0,3.5,3.5,30,0.00,CLR,,0.00,WeatherDisplay:10.37,2013-02-12 22:53:00,
2013-02-12 17:58:00,53.1,22.4,29.91,North,0,3.5,3.5,30,0.00,CLR,,0.00,WeatherDisplay:10.37,2013-02-12 22:58:00,
2013-02-12 18:03:00,53.1,22.4,29.90,North,0,3.5,3.5,30,0.00,CLR,,0.00,WeatherDisplay:10.37,2013-02-12 23:03:00,
2013-02-12 18:08:00,53.1,22.4,29.90,North,0,3.5,3.5,30,0.00,CLR,,0.00,WeatherDisplay:10.37,2013-02-12 23:08:00,
2013-02-12 18:13:00,53.1,22.4,29.91,North,0,3.5,3.5,30,0.00,CLR,,0.00,WeatherDisplay:10.37,2013-02-12 23:13:00,
2013-02-12 18:18:00,53.1,22.4,29.91,North,0,3.5,3.5,30,0.00,CLR,,0.00,WeatherDisplay:10.37,2013-02-12 23:18:00,
2013-02-12 18:23:00,53.1,22.4,29.91,North,0,3.5,3.5,30,0.00,CLR,,0.00,WeatherDisplay:10.37,2013-02-12 23:23:00,
2013-02-12 18:28:00,53.1,22.4,29.91,North,0,3.5,3.5,30,0.00,CLR,,0.00,WeatherDisplay:10.37,2013-02-12 23:28:00,
2013-02-12 18:33:00,53.1,22.4,29.91,North,0,3.5,3.5,30,0.00,CLR,,0.00,WeatherDisplay:10.37,2013-02-12 23:33:00,
2013-02-12 18:38:00,53.1,22.4,29.90,North,0,3.5,3.5,30,0.00,CLR,,0.00,WeatherDisplay:10.37,2013-02-12 23:38:00,
2013-02-12 18:43:00,53.1,22.4,29.90,North,0,3.5,3.5,30,0.00,CLR,,0.00,WeatherDisplay:10.37,2013-02-12 23:43:00,
2013-02-12 18:48:00,53.1,22.4,29.89,North,0,3.5,3.5,30,0.00,CLR,,0.00,WeatherDisplay:10.37,2013-02-12 23:48:00,
2013-02-12 18:53:00,53.1,22.4,29.90,North,0,3.5,3.5,30,0.00,CLR,,0.00,WeatherDisplay:10.37,2013-02-12 23:53:00,
2013-02-12 18:58:00,53.1,22.4,29.90,North,0,3.5,3.5,30,0.00,CLR,,0.00,WeatherDisplay:10.37,2013-02-12 23:58:00,
2013-02-12 19:03:00,53.1,22.4,29.89,North,0,3.5,3.5,30,0.00,CLR,,0.00,WeatherDisplay:10.37,2013-02-13 00:03:00,
2013-02-12 19:08:00,53.1,22.4,29.88,North,0,3.5,3.5,30,0.00,CLR,,0.00,WeatherDisplay:10.37,2013-02-13 00:08:00,
2013-02-12 19:13:00,53.1,22.4,29.88,North,0,3.5,3.5,30,0.00,CLR,,0.00,WeatherDisplay:10.37,2013-02-13 00:13:00,
2013-02-12 19:18:00,53.1,22.4,29.88,North,0,3.5,3.5,30,0.00,CLR,,0.00,WeatherDisplay:10.37,2013-02-13 00:18:00,
2013-02-12 19:23:00,53.1,22.4,29.88,North,0,3.5,3.5,30,0.00,CLR,,0.00,WeatherDisplay:10.37,2013-02-13 00:23:00,
2013-02-12 19:28:00,53.1,22.4,29.87,North,0,3.5,3.5,30,0.00,CLR,,0.00,WeatherDisplay:10.37,2013-02-13 00:28:00,
2013-02-12 19:33:00,53.1,22.4,29.88,North,0,3.5,3.5,30,0.00,CLR,,0.00,WeatherDisplay:10.37,2013-02-13 00:33:00,
2013-02-12 19:38:00,53.1,22.4,29.87,North,0,3.5,3.5,30,0.00,CLR,,0.00,WeatherDisplay:10.37,2013-02-13 00:38:00,
2013-02-12 19:43:00,53.1,22.4,29.88,North,0,3.5,3.5,30,0.00,CLR,,0.00,WeatherDisplay:10.37,2013-02-13 00:43:00,
2013-02-12 19:49:00,53.1,22.4,29.88,North,0,3.5,3.5,30,0.00,CLR,,0.00,WeatherDisplay:10.37,2013-02-13 00:49:00,
2013-02-12 19:54:00,53.1,22.4,29.87,North,0,3.5,3.5,30,0.00,CLR,,0.00,WeatherDisplay:10.37,2013-02-13 00:54:00,
2013-02-12 19:59:00,53.1,22.4,29.88,North,0,3.5,3.5,30,0.00,CLR,,0.00,WeatherDisplay:10.37,2013-02-13 00:59:00,
2013-02-12 20:04:00,53.1,22.4,29.88,North,0,3.5,3.5,30,0.00,CLR,,0.00,WeatherDisplay:10.37,2013-02-13 01:04:00,
2013-02-12 20:09:00,53.1,22.4,29.89,North,0,3.5,3.5,30,0.00,CLR,,0.00,WeatherDisplay:10.37,2013-02-13 01:09:00,
2013-02-12 20:14:00,53.1,22.4,29.88,North,0,3.5,3.5,30,0.00,CLR,,0.00,WeatherDisplay:10.37,2013-02-13 01:14:00,
2013-02-12 20:19:00,53.1,22.4,29.89,North,0,3.5,3.5,30,0.00,CLR,,0.00,WeatherDisplay:10.37,2013-02-13 01:19:00,
2013-02-12 20:24:00,53.1,22.4,29.89,North,0,3.5,3.5,30,0.00,CLR,,0.00,WeatherDisplay:10.37,2013-02-13 01:24:00,
2013-02-12 20:29:00,53.1,22.4,29.89,North,0,3.5,3.5,30,0.00,CLR,,0.00,WeatherDisplay:10.37,2013-02-13 01:29:00,
2013-02-12 20:34:00,53.1,22.4,29.89,North,0,3.5,3.5,30,0.00,CLR,,0.00,WeatherDisplay:10.37,2013-02-13 01:34:00,
2013-02-12 20:39:00,53.1,22.4,29.89,North,0,3.5,3.5,30,0.00,CLR,,0.00,WeatherDisplay:10.37,2013-02-13 01:39:00,
2013-02-12 20:44:00,53.1,22.4,29.90,North,0,3.5,3.5,30,0.00,CLR,,0.00,WeatherDisplay:10.37,2013-02-13 01:44:00,
2013-02-12 20:49:00,53.1,22.4,29.91,North,0,3.5,3.5,30,0.00,CLR,,0.00,WeatherDisplay:10.37,2013-02-13 01:49:00,
2013-02-12 20:54:00,53.1,22.4,29.91,North,0,3.5,3.5,30,0.00,CLR,,0.00,WeatherDisplay:10.37,2013-02-13 01:54:00,
2013-02-12 20:59:00,53.1,22.4,29.91,North,0,3.5,3.5,30,0.00,CLR,,0.00,WeatherDisplay:10.37,2013-02-13 01:59:00,
2013-02-12 21:04:00,53.1,22.4,29.92,North,0,3.5,3.5,30,0.00,CLR,,0.00,WeatherDisplay:10.37,2013-02-13 02:04:00,
2013-02-12 21:09:00,43.2,23.2,29.91,SW,225,2.3,2.3,45,0.00,CLR,,0.00,WeatherDisplay:10.37,2013-02-13 02:09:00,
2013-02-12 21:14:00,42.8,23.4,29.91,South,180,2.3,2.3,46,0.00,CLR,,0.00,WeatherDisplay:10.37,2013-02-13 02:14:00,
2013-02-12 21:19:00,42.4,24.6,29.91,SE,135,2.3,2.3,49,0.00,CLR,,0.00,WeatherDisplay:10.37,2013-02-13 02:19:00,
2013-02-12 21:24:00,42.1,24.3,29.91,SW,225,1.1,1.1,49,0.00,CLR,,0.00,WeatherDisplay:10.37,2013-02-13 02:24:00,
2013-02-12 21:29:00,42.1,23.3,29.90,West,270,3.5,3.5,47,0.00,CLR,,0.00,WeatherDisplay:10.37,2013-02-13 02:29:00,
2013-02-12 21:34:00,42.3,23.4,29.90,NW,315,2.3,2.3,47,0.00,CLR,,0.00,WeatherDisplay:10.37,2013-02-13 02:34:00,
2013-02-12 21:39:00,42.6,23.3,29.90,NW,315,1.1,1.1,46,0.00,CLR,,0.00,WeatherDisplay:10.37,2013-02-13 02:39:00,
2013-02-12 21:44:00,42.3,23.9,29.90,South,180,3.5,3.5,48,0.00,CLR,,0.00,WeatherDisplay:10.37,2013-02-13 02:44:00,
2013-02-12 21:49:00,41.9,23.6,29.90,SW,225,2.3,2.3,48,0.00,CLR,,0.00,WeatherDisplay:10.37,2013-02-13 02:49:00,
2013-02-12 21:54:00,41.9,23.1,29.90,NW,315,1.1,1.1,47,0.00,CLR,,0.00,WeatherDisplay:10.37,2013-02-13 02:54:00,
2013-02-12 21:59:00,42.3,23.4,29.89,NW,315,3.5,3.5,47,0.00,CLR,,0.00,WeatherDisplay:10.37,2013-02-13 02:59:00,
2013-02-12 22:04:00,42.3,23.4,29.88,NW,315,3.5,3.5,47,0.00,CLR,,0.00,WeatherDisplay:10.37,2013-02-13 03:04:00,
2013-02-12 22:09:00,41.5,24.7,29.88,NW,315,1.1,0.0,51,0.00,CLR,,0.00,WeatherDisplay:10.37,2013-02-13 03:09:00,
2013-02-12 22:14:00,41.4,25.5,29.88,NW,315,4.6,4.6,53,0.00,CLR,,0.00,WeatherDisplay:10.37,2013-02-13 03:14:00,
2013-02-12 22:19:00,41.4,25.0,29.88,NW,315,3.5,3.5,52,0.00,CLR,,0.00,WeatherDisplay:10.37,2013-02-13 03:19:00,
2013-02-12 22:24:00,41.2,25.8,29.90,SE,135,4.6,4.6,54,0.00,CLR,,0.00,WeatherDisplay:10.37,2013-02-13 03:24:00,
2013-02-12 22:29:00,40.6,25.3,29.89,NW,315,3.5,3.5,54,0.00,CLR,,0.00,WeatherDisplay:10.37,2013-02-13 03:29:00,
2013-02-12 22:34:00,40.6,24.8,29.88,SW,225,2.3,2.3,53,0.00,CLR,,0.00,WeatherDisplay:10.37,2013-02-13 03:34:00,
2013-02-12 22:39:00,40.6,24.8,29.87,West,270,2.3,2.3,53,0.00,CLR,,0.00,WeatherDisplay:10.37,2013-02-13 03:39:00,
2013-02-12 22:44:00,41.2,24.4,29.88,West,270,2.3,2.3,51,0.00,CLR,,0.00,WeatherDisplay:10.37,2013-02-13 03:44:00,
2013-02-12 22:49:00,41.4,24.1,29.89,NW,315,1.1,0.0,50,0.00,CLR,,0.00,WeatherDisplay:10.37,2013-02-13 03:49:00,
2013-02-12 22:54:00,41.5,25.2,29.89,South,180,3.5,3.5,52,0.00,CLR,,0.00,WeatherDisplay:10.37,2013-02-13 03:54:00,
2013-02-12 22:59:00,41.2,24.9,29.88,SW,225,4.6,4.6,52,0.00,CLR,,0.00,WeatherDisplay:10.37,2013-02-13 03:59:00,
2013-02-12 23:04:00,41.2,24.4,29.88,NW,315,1.1,1.1,51,0.00,CLR,,0.00,WeatherDisplay:10.37,2013-02-13 04:04:00,
2013-02-12 23:09:00,41.2,24.4,29.88,NW,315,1.1,1.1,51,0.00,CLR,,0.00,WeatherDisplay:10.37,2013-02-13 04:09:00,
2013-02-12 23:14:00,40.5,24.7,29.88,West,270,1.1,1.1,53,0.00,CLR,,0.00,WeatherDisplay:10.37,2013-02-13 04:14:00,
2013-02-12 23:19:00,40.3,24.9,29.88,SE,135,2.3,2.3,54,0.00,CLR,,0.00,WeatherDisplay:10.37,2013-02-13 04:19:00,
2013-02-12 23:24:00,39.6,25.1,29.89,West,270,3.5,3.5,56,0.00,CLR,,0.00,WeatherDisplay:10.37,2013-02-13 04:24:00,
2013-02-12 23:29:00,39.4,25.4,29.89,West,270,3.5,3.5,57,0.00,CLR,,0.00,WeatherDisplay:10.37,2013-02-13 04:29:00,
2013-02-12 23:34:00,39.2,26.5,29.88,South,180,3.5,3.5,60,0.00,CLR,,0.00,WeatherDisplay:10.37,2013-02-13 04:34:00,
2013-02-12 23:39:00,38.8,26.1,29.89,West,270,3.5,3.5,60,0.00,CLR,,0.00,WeatherDisplay:10.37,2013-02-13 04:39:00,
2013-02-12 23:44:00,39.0,26.3,29.88,West,270,3.5,3.5,60,0.00,CLR,,0.00,WeatherDisplay:10.37,2013-02-13 04:44:00,
2013-02-12 23:49:00,39.4,25.0,29.88,West,270,3.5,3.5,56,0.00,CLR,,0.00,WeatherDisplay:10.37,2013-02-13 04:49:00,
2013-02-12 23:54:00,39.2,25.6,29.88,South,180,3.5,3.5,58,0.00,CLR,,0.00,WeatherDisplay:10.37,2013-02-13 04:54:00,
2013-02-12 23:59:00,38.5,26.6,29.88,SW,225,3.5,3.5,62,0.00,CLR,,0.00,WeatherDisplay:10.37,2013-02-13 04:59:00,